Tracking 28799 objects as of 18-Apr-2024
HD Live streaming from Space Station
objects crossing your sky now

FENGYUN 1C DEB

Track FENGYUN 1C DEB now!
10-day predictions


NORAD ID: 38116
Int'l Code: 1999-025EPM
Perigee: 796.0 km
Apogee: 903.7 km
Inclination: 98.8 °
Period: 101.8 minutes
Semi major axis: 7220 km
RCS: 0.0073 m2 (small)
Launch date: May 10, 1999
Source: People's Republic of China (PRC)
Launch site: Taiyaun Space Center, China (TSC)

Note: This is SATELLITE DEBRIS
Your satellite tracking list
Your tracking list is empty




NASA's NSSDC Master Catalog

Two Line Element Set (TLE):
1 38116U 99025EPM 24107.94009438  .00001181  00000-0  61676-3 0  9995
2 38116  98.7702 151.6633 0074596  77.9593  43.8354 14.14879624559259
Source of the keplerian elements: AFSPC